TimeCDT,TemperatureF,Dew PointF,Humidity,Sea Level PressureIn,VisibilityMPH,Wind Direction,Wind SpeedMPH,Gust SpeedMPH,PrecipitationIn,Events,Conditions,WindDirDegrees,DateUTC
12:18 AM,33.8,30.2,87,29.99,5.0,ENE,4.6,-,N/A,,Overcast,70,2013-03-23 05:18:00
12:37 AM,33.8,30.2,87,29.99,5.0,Calm,Calm,-,N/A,,Overcast,0,2013-03-23 05:37:00
12:53 AM,33.1,30.0,89,30.01,5.0,ENE,3.5,-,N/A,,Overcast,60,2013-03-23 05:53:00
1:53 AM,33.1,28.9,85,30.01,6.0,NE,4.6,-,N/A,,Overcast,50,2013-03-23 06:53:00
2:53 AM,33.1,28.9,85,30.01,6.0,NNE,4.6,-,N/A,,Overcast,30,2013-03-23 07:53:00
3:15 AM,33.8,28.4,81,29.98,6.0,NNE,3.5,-,N/A,,Overcast,20,2013-03-23 08:15:00
3:53 AM,33.1,28.9,85,30.01,6.0,Calm,Calm,-,N/A,,Overcast,0,2013-03-23 08:53:00
4:53 AM,33.1,28.9,85,29.99,5.0,NE,5.8,-,N/A,,Overcast,40,2013-03-23 09:53:00
5:53 AM,33.1,30.0,89,30.00,5.0,NE,5.8,-,N/A,,Overcast,40,2013-03-23 10:53:00
6:53 AM,33.1,30.0,89,30.01,5.0,NNE,5.8,-,N/A,,Overcast,30,2013-03-23 11:53:00
7:53 AM,33.1,30.0,89,30.01,4.0,NNE,8.1,-,N/A,,Overcast,30,2013-03-23 12:53:00
8:29 AM,33.8,28.4,81,29.99,5.0,NNE,5.8,-,N/A,,Overcast,30,2013-03-23 13:29:00
8:53 AM,34.0,28.9,82,30.02,6.0,ENE,8.1,-,N/A,,Haze,60,2013-03-23 13:53:00
9:53 AM,34.0,28.9,82,30.03,7.0,NE,11.5,-,N/A,,Overcast,50,2013-03-23 14:53:00
10:53 AM,35.1,28.9,78,30.06,8.0,NNE,9.2,-,N/A,,Overcast,30,2013-03-23 15:53:00
11:53 AM,36.0,28.0,73,30.00,10.0,ENE,13.8,-,N/A,,Overcast,60,2013-03-23 16:53:00
12:53 PM,36.0,27.0,70,30.00,10.0,ENE,9.2,19.6,N/A,,Overcast,60,2013-03-23 17:53:00
1:53 PM,37.0,27.0,67,29.96,10.0,NE,10.4,16.1,N/A,,Overcast,50,2013-03-23 18:53:00
2:11 PM,35.6,28.4,75,29.93,1.8,NE,11.5,-,0.00,Snow,Light Snow,50,2013-03-23 19:11:00
2:26 PM,35.6,28.4,75,29.93,0.8,NE,10.4,-,0.00,Snow,Light Snow,40,2013-03-23 19:26:00
2:53 PM,34.0,30.9,89,29.96,1.0,NE,6.9,-,0.01,Snow,Light Snow,50,2013-03-23 19:53:00
3:06 PM,33.8,32.0,93,29.94,1.2,NE,4.6,-,0.00,Snow,Light Snow,40,2013-03-23 20:06:00
3:13 PM,33.8,32.0,93,29.93,0.8,NNE,5.8,-,0.01,Snow,Light Snow,30,2013-03-23 20:13:00
3:41 PM,33.8,32.0,93,29.90,0.2,NE,9.2,-,0.04,Fog-Snow,Heavy Snow,40,2013-03-23 20:41:00
3:53 PM,33.1,32.0,96,29.92,0.2,NE,9.2,-,0.05,Fog-Snow,Snow,40,2013-03-23 20:53:00
4:04 PM,33.8,32.0,93,29.89,0.2,NE,9.2,-,0.02,Fog-Snow,Heavy Snow,40,2013-03-23 21:04:00
4:19 PM,33.8,32.0,93,29.89,0.8,NE,9.2,-,0.03,Snow,Light Snow,40,2013-03-23 21:19:00
4:31 PM,33.8,32.0,93,29.89,1.0,NE,10.4,-,0.03,Snow,Light Snow,40,2013-03-23 21:31:00
4:53 PM,33.1,30.9,92,29.92,1.8,NE,9.2,-,0.03,Snow,Light Snow,40,2013-03-23 21:53:00
5:12 PM,33.8,32.0,93,29.91,0.5,NNE,8.1,-,0.00,Fog-Snow,Snow,20,2013-03-23 22:12:00
5:24 PM,33.8,32.0,93,29.90,0.8,NNE,10.4,-,0.01,Snow,Light Snow,20,2013-03-23 22:24:00
5:53 PM,33.1,32.0,96,29.92,0.5,NNE,9.2,-,0.02,Fog-Snow,Snow,30,2013-03-23 22:53:00
6:03 PM,33.8,32.0,93,29.89,0.2,NNE,10.4,-,0.02,Fog-Snow,Heavy Snow,30,2013-03-23 23:03:00
6:32 PM,33.8,32.0,93,29.89,0.5,NNE,8.1,-,0.04,Fog-Snow,Snow,20,2013-03-23 23:32:00
6:50 PM,33.8,32.0,93,29.90,1.2,North,9.2,-,0.05,Snow,Light Snow,10,2013-03-23 23:50:00
6:53 PM,33.1,32.0,96,29.93,1.2,North,9.2,-,0.05,Snow,Light Snow,10,2013-03-23 23:53:00
7:26 PM,33.8,32.0,93,29.91,0.8,NNE,11.5,-,0.00,Snow,Light Snow,20,2013-03-24 00:26:00
7:48 PM,33.8,32.0,93,29.92,1.2,North,10.4,-,0.01,Snow,Light Snow,10,2013-03-24 00:48:00
7:53 PM,33.1,32.0,96,29.94,1.2,NNE,11.5,-,0.01,Snow,Light Snow,20,2013-03-24 00:53:00
8:19 PM,33.8,32.0,93,29.93,0.8,North,9.2,-,0.02,Snow,Light Snow,10,2013-03-24 01:19:00
8:53 PM,33.1,32.0,96,29.96,0.8,North,8.1,-,0.05,Snow,Light Snow,360,2013-03-24 01:53:00
9:04 PM,33.8,32.0,93,29.94,1.2,North,10.4,-,0.00,Snow,Light Snow,10,2013-03-24 02:04:00
9:35 PM,32.0,30.2,93,29.93,0.8,North,17.3,24.2,0.01,Snow,Light Snow,10,2013-03-24 02:35:00
9:53 PM,32.0,30.0,92,29.95,1.0,North,15.0,-,0.01,Snow,Light Snow,10,2013-03-24 02:53:00
10:35 PM,30.2,28.4,93,29.87,2.0,NNE,20.7,28.8,0.00,Snow,Light Snow,30,2013-03-24 03:35:00
10:53 PM,30.9,28.9,92,29.93,3.0,North,13.8,23.0,0.00,Snow,Light Snow,10,2013-03-24 03:53:00
11:45 PM,30.2,28.4,93,29.91,4.0,North,16.1,24.2,0.00,Snow,Light Snow,10,2013-03-24 04:45:00
11:53 PM,30.9,28.0,89,29.94,4.0,North,15.0,25.3,0.00,Snow,Light Snow,10,2013-03-24 04:53:00